User: anonymous   Login
Location: Unspecified
(0.0000°N, 0.0000°E)
Time: 19:07:10
(UTC+00:00)
Language:

SL-12 R/B(2) - Orbit

View from above orbital plane
View from above orbital plane
View from above satellite
View from above satellite

Ground track
Ground track

The orbit data is extracted from the following two-line orbital elements,

1 26486U 00051D   22274.29605951 -.00000039  00000-0  00000-0 0  9999
2 26486  63.0582 336.7252 7532220 274.6843  77.1403  1.45764882117494
Epoch (UTC): 01 October 2022 07:06:19
Eccentricity: 0.7532220
inclination: 63.0582°
perigee height: 1730 km
apogee height: 51227 km
right ascension of ascending node: 336.7252°
argument of perigee: 274.6843°
revolutions per day: 1.45764882
mean anomaly at epoch: 77.1403°
orbit number at epoch: 11749

The dashed part of the orbit path shows where the satellite is in the earth's shadow,  

DLR